Weather History for Dayton Wright, OH

Change the Weather History Date:

Saturday, February 16, 2013

  Actual Average (KFFO) Record (KFFO)
Temperature  
Mean Temperature 20 °F -  
Max Temperature 24 °F 40 °F 64 °F (2006)
Min Temperature 16 °F 23 °F -6 °F (2007)
Degree Days  
Heating Degree Days 44    
Moisture  
Dew Point 14 °F    
Average Humidity 77    
Maximum Humidity 93    
Minimum Humidity 60    
Precipitation  
Precipitation 0.00 in - - ()
Sea Level Pressure  
Sea Level Pressure 30.09 in    
Wind  
Wind Speed 5 mph (WNW)    
Max Wind Speed 15 mph    
Max Gust Speed 24 mph    
Visibility 8 miles    
Events Snow    
Averages and records for this station are not official NWS values.
T = Trace of Precipitation, MM = Missing Value Source: NWS Daily Summary

Daily Weather History Graph

Daily Weather History Graph

Search for Another Location

Airport:

Trip Planner

Search our weather history database for the weather conditions in past years. The results will help you decide how hot, cold, wet, or windy it might be!

Date:

Astronomy

Feb. 16, 2013 Rise Set
Actual Time 7:27 AM EST 6:14 PM EST
Civil Twilight 7:00 AM EST 6:42 PM EST
Nautical Twilight 6:28 AM EST 7:13 PM EST
Astronomical Twilight 5:57 AM EST 7:45 PM EST
Moon 10:41 AM EST (2/16) 12:12 AM EST (2/16)
Length of Visible Light 11h 42m
Length of Day
10h 47m
Waxing Crescent, 39% of the Moon is Illuminated
Feb 16
Waxing Crescent
Feb 17
First Quarter
Feb 25
Full
Mar 4
Last Quarter
Mar 11
New

Hourly Weather History & Observations

Time (EST) Temp. Windchill Dew Point Humidity Pressure Visibility Wind Dir Wind Speed Gust Speed Precip Events Conditions
12:53 AM 21.0 °F - 17.1 °F 85% 30.15 in 10.0 mi Calm Calm - N/A   Clear
1:53 AM 19.9 °F - 17.1 °F 89% 30.14 in 9.0 mi Calm Calm - N/A   Clear
2:53 AM 18.0 °F - 16.0 °F 92% 30.13 in 6.0 mi Calm Calm - N/A   Clear
3:53 AM 18.0 °F - 15.1 °F 88% 30.11 in 6.0 mi Calm Calm - N/A   Clear
4:53 AM 17.1 °F - 14.0 °F 88% 30.10 in 5.0 mi Calm Calm - N/A   Clear
5:53 AM 17.1 °F - 12.9 °F 84% 30.09 in 7.0 mi Calm Calm - N/A   Scattered Clouds
7:53 AM 17.1 °F - 15.1 °F 92% 30.09 in 5.0 mi Calm Calm - N/A   Scattered Clouds
8:53 AM 21.0 °F 16.2 °F 19.0 °F 92% 30.09 in 5.0 mi SW 3.5 mph - N/A   Mostly Cloudy
9:00 AM 21.2 °F 12.6 °F 19.4 °F 93% 30.05 in 6.0 mi WSW 6.9 mph - N/A   Mostly Cloudy
9:28 AM 23.0 °F 15.8 °F 19.4 °F 86% 30.05 in 9.0 mi West 5.8 mph - N/A   Overcast
9:53 AM 23.0 °F 15.8 °F 19.0 °F 85% 30.09 in 10.0 mi WNW 5.8 mph - N/A   Overcast
10:53 AM 23.0 °F 14.7 °F 17.1 °F 78% 30.09 in 10.0 mi WNW 6.9 mph - N/A   Overcast
11:06 AM 24.8 °F 14.6 °F 17.6 °F 74% 30.05 in 10.0 mi West 10.4 mph - N/A   Overcast
11:53 AM 24.1 °F 14.4 °F 17.1 °F 75% 30.09 in 6.0 mi WNW 9.2 mph - 0.00 in Snow Light Snow
12:53 PM 24.1 °F 13.7 °F 14.0 °F 65% 30.07 in 9.0 mi West 10.4 mph - 0.00 in   Overcast
1:53 PM 24.1 °F 13.7 °F 12.9 °F 62% 30.06 in 10.0 mi West 10.4 mph - 0.00 in   Overcast
2:53 PM 24.1 °F 11.5 °F 12.9 °F 62% 30.06 in 10.0 mi WNW 15.0 mph 21.9 mph N/A   Overcast
3:53 PM 23.0 °F 10.1 °F 12.0 °F 63% 30.07 in 10.0 mi NW 15.0 mph - 0.00 in   Overcast
4:53 PM 21.9 °F 9.2 °F 10.9 °F 63% 30.09 in 10.0 mi WNW 13.8 mph 24.2 mph N/A   Overcast
5:53 PM 21.9 °F 8.7 °F 10.0 °F 60% 30.09 in 9.0 mi WNW 15.0 mph 18.4 mph 0.00 in   Overcast
6:53 PM 21.0 °F 10.6 °F 10.0 °F 63% 30.10 in 9.0 mi WNW 9.2 mph - 0.00 in   Overcast
7:46 PM 19.4 °F 7.2 °F 12.2 °F 74% 30.07 in 4.0 mi NW 11.5 mph - 0.00 in Snow Light Snow
7:53 PM 19.9 °F 7.9 °F 12.9 °F 74% 30.12 in 6.0 mi NW 11.5 mph - 0.00 in Snow Light Snow
8:01 PM 19.4 °F 7.9 °F 12.2 °F 74% 30.07 in 6.0 mi NW 10.4 mph - 0.00 in Snow Light Snow
8:53 PM 19.0 °F 6.8 °F 10.0 °F 68% 30.12 in 10.0 mi NW 11.5 mph - 0.00 in   Overcast
9:53 PM 19.0 °F 7.5 °F 10.0 °F 68% 30.13 in 10.0 mi WNW 10.4 mph - 0.00 in   Overcast
10:53 PM 17.1 °F 10.0 °F 10.0 °F 74% 30.13 in 10.0 mi WNW 4.6 mph - 0.00 in   Scattered Clouds
11:53 PM 16.0 °F - 10.0 °F 77% 30.13 in 10.0 mi Calm Calm - N/A   Overcast